FW2661 Weather Reports


time (UTC)temp
C
wind
direction
speed
KPH
gust
KPH
rain 1hr
cm
rain 24hr
cm
rain mn
cm
humidity
%
barometer
mb
20260504045050 14 0.0 0.0 0.00 0.00 0.00 57 1004.7
20260504044044 14 0.0 0.0 0.00 0.00 0.00 56 1004.7
20260504041946 14 0.0 0.0 0.00 0.00 0.00 56 1004.7
20260504035810 15 0.0 0.0 0.00 0.00 0.00 56 1004.9
20260504034802 15 0.0 0.0 0.00 0.00 0.00 55 1005.0
20260504033811 15 0.0 0.0 0.00 0.00 0.00 55 1005.1
20260504032826 15 0.0 0.0 0.00 0.00 0.00 55 1005.3
20260504031813 15 0.0 0.0 0.00 0.00 0.00 55 1005.3
20260504025713 15 0.0 0.0 0.00 0.00 0.00 55 1005.4
20260504023546 14 0.0 0.0 0.00 0.00 0.00 55 1005.4
20260504021345 15 0.0 0.0 0.00 0.00 0.00 54 1005.2
20260504020345 15 0.0 0.0 0.00 0.00 0.00 52 1005.2
20260504015329 16 0.0 0.0 0.00 0.00 0.00 51 1005.2
20260504014323 16 0.0 0.0 0.00 0.00 0.00 49 1005.1
20260504013319 16 0.0 0.0 0.00 0.00 0.00 47 1005.0
20260504012321 17 0.0 0.0 0.00 0.00 0.00 46 1004.9
20260504011311 17 0.0 0.0 0.00 0.00 0.00 45 1004.7
20260504004006 18 0.0 0.0 0.00 0.00 0.00 40 1004.8
20260504003025 18 0.0 0.0 0.00 0.00 0.00 39 1004.8
20260504000831 19 0.0 0.0 0.00 0.00 0.00 37 1004.7
20260503235823 19 0.0 0.0 0.00 0.00 0.00 36 1004.7
20260503233719 19 0.0 0.0 0.00 0.00 0.00 36 1004.7
20260503232718 19 0.0 0.0 0.00 0.00 0.00 38 1004.7
20260503231646 19 0.0 0.0 0.00 0.00 0.00 37 1004.8
20260503230646 20 0.0 0.0 0.00 0.00 0.00 36 1005.0
20260503225632 20 0.0 0.0 0.00 0.00 0.00 35 1005.0
20260503223529 20 0.0 0.0 0.00 0.00 0.00 35 1005.2
20260503221408 20 0.0 0.0 0.00 0.00 0.00 35 1005.5
20260503220400 20 0.0 0.0 0.00 0.00 0.00 34 1005.6
20260503215354 20 0.0 0.0 0.00 0.00 0.00 34 1005.7
20260503214410 20 0.0 0.0 0.00 0.00 0.00 35 1005.8
20260503213404 20 0.0 0.0 0.00 0.00 0.00 34 1005.9
20260503210112 19 0.0 0.0 0.00 0.00 0.00 33 1006.3
20260503205042 19 0.0 0.0 0.00 0.00 0.00 37 1006.5
20260503204037 18 0.0 0.0 0.00 0.00 0.00 37 1006.8
20260503203102 18 0.0 0.0 0.00 0.00 0.00 39 1006.9
20260503202046 18 0.0 0.0 0.00 0.00 0.00 39 1007.3
20260503201029 18 0.0 0.0 0.00 0.00 0.00 42 1007.6
20260503194915 17 0.0 0.0 0.00 0.00 0.00 42 1008.0
20260503193912 16 0.0 0.0 0.00 0.00 0.00 42 1008.1
20260503192913 16 0.0 0.0 0.00 0.00 0.00 40 1008.1
20260503191916 16 0.0 0.0 0.00 0.00 0.00 41 1008.2
20260503190930 17 0.0 0.0 0.00 0.00 0.00 39 1008.3
20260503185903 16 0.0 0.0 0.00 0.00 0.00 42 1008.4
20260503184911 15 0.0 0.0 0.00 0.00 0.00 43 1008.5
20260503183849 15 0.0 0.0 0.00 0.00 0.00 47 1008.8
20260503182904 14 0.0 0.0 0.00 0.00 0.00 46 1009.0
20260503180651 15 0.0 0.0 0.00 0.00 0.00 48 1009.5
20260503175701 14 0.0 0.0 0.00 0.00 0.00 50 1009.8
20260503174632 14 0.0 0.0 0.00 0.00 0.00 50 1010.1
20260503173618 13 0.0 0.0 0.00 0.00 0.00 51 1010.3
20260503172552 13 0.0 0.0 0.00 0.00 0.00 55 1010.9
20260503171609 12 0.0 0.0 0.00 0.00 0.00 57 1011.0
20260503170622 12 0.0 0.0 0.00 0.00 0.00 59 1011.1
20260503150546 12 0.0 0.0 0.00 0.00 0.00 52 1012.5
20260503130549 10 0.0 0.0 0.00 0.00 0.00 49 1013.5
20260503120204 9 0.0 0.0 0.00 0.00 0.00 52 1013.6
20260503081441 7 0.0 0.0 0.00 0.00 0.00 48 1014.3
20260503054737 7 0.0 0.0 0.00 0.00 0.00 54 1015.3
20260503053756 7 0.0 0.0 0.00 0.00 0.00 54 1015.4
20260503051548 7 0.0 0.0 0.00 0.00 0.00 55 1015.6
20260503050542 7 0.0 0.0 0.00 0.00 0.00 55 1015.7